EW5898 Bow WA US current weather conditions

sailwx.info

Wind from 295 at 2 knots gusting 5

Air temperature 7.8° C
Dewpoint 7.2° C

Last reported at 2019-Dec-12 23:52 UTC.
Time now 2019-Dec-13 00:28 UTC

Location: N 48°32' W 122°22'.
View on Google Maps.

See reports from other nearby stations

  
Tides and Currents Weather Stations Pressure Air Temp Water Temp Dewpoint Dewpoint Depression Visibility Wind Speed Wind Dir Waves Ship Positions
date/time (UTC)wind fromknots sea level pressurealtimeterstation pressurevisibilityair tempwater tempwave heightnotes
2019-Dec-13 00:02 292 5 gusting 10 7.2
2019-Dec-12 23:52 295 2 gusting 5 7.8
2019-Dec-12 23:42 240 7.8
2019-Dec-12 23:32 085 1 gusting 2 7.2
2019-Dec-12 23:22 152 7.2
2019-Dec-12 23:12 093 2 gusting 3 7.2
2019-Dec-12 23:02 147 0 gusting 6 7.2
2019-Dec-12 22:52 116 1 gusting 6 7.2
2019-Dec-12 22:42 133 1 gusting 4 7.8
2019-Dec-12 22:32 120 1 gusting 7 8.3
2019-Dec-12 22:22 144 3 gusting 13 7.8
2019-Dec-12 22:12 145 2 gusting 5 7.8
2019-Dec-12 22:02 113 2 gusting 5 7.8
2019-Dec-12 21:52 135 1 gusting 7 7.8
2019-Dec-12 21:42 068 1 gusting 6 7.8
2019-Dec-12 21:32 128 3 gusting 10 7.8
2019-Dec-12 21:22 114 3 gusting 9 8.3
2019-Dec-12 21:12 072 6 gusting 11 8.9
2019-Dec-12 21:02 114 4 gusting 10 8.9
2019-Dec-12 20:52 103 5 gusting 13 9.4
2019-Dec-12 20:42 097 3 gusting 15 9.4
2019-Dec-12 20:32 142 3 gusting 15 9.4
2019-Dec-12 20:22 127 6 gusting 13 9.4
2019-Dec-12 20:12 096 3 gusting 10 9.4
2019-Dec-12 20:02 082 5 gusting 11 9.4
2019-Dec-12 19:52 100 4 gusting 9 9.4
2019-Dec-12 19:42 133 4 gusting 14 8.9
2019-Dec-12 19:32 075 3 gusting 9 8.9
2019-Dec-12 19:22 134 4 gusting 10 8.9
2019-Dec-12 19:12 157 3 gusting 10 8.9
2019-Dec-12 19:02 103 2 gusting 6 8.9
2019-Dec-12 18:52 104 1 gusting 5 8.9
2019-Dec-12 18:42 099 2 gusting 5 8.9
2019-Dec-12 18:31 164 1 gusting 7 8.9
2019-Dec-12 18:21 087 1 gusting 4 8.9
2019-Dec-12 18:11 102 1 gusting 5 8.9
2019-Dec-12 18:01 128 1 gusting 3 8.9
2019-Dec-12 17:51 103 0 gusting 4 8.9
2019-Dec-12 17:41 117 0 gusting 6 8.9
2019-Dec-12 17:31 149 3 gusting 8 8.9
2019-Dec-12 17:21 159 0 gusting 4 8.9
2019-Dec-12 17:11 125 0 gusting 6 8.9
2019-Dec-12 17:01 103 0 gusting 5 8.9
2019-Dec-12 16:51 113 2 gusting 9 8.9
2019-Dec-12 16:41 103 3 gusting 8 8.9
2019-Dec-12 16:31 102 1 gusting 5 8.9
2019-Dec-12 16:21 111 2 gusting 9 8.3
2019-Dec-12 16:11 086 1 gusting 3 7.8
2019-Dec-12 16:01 086 1 gusting 3 7.8
2019-Dec-12 15:51 110 1 gusting 3 7.8
2019-Dec-12 15:41 087 2 gusting 5 7.8
2019-Dec-12 15:31 120 1 gusting 4 7.8
2019-Dec-12 15:21 092 2 gusting 3 7.8
2019-Dec-12 15:11 104 1 gusting 5 8.3
2019-Dec-12 15:01 137 1 gusting 3 8.3
2019-Dec-12 14:51 096 1 gusting 6 8.3
2019-Dec-12 14:41 124 1 gusting 8 8.3
2019-Dec-12 14:31 092 0 gusting 7 7.8
2019-Dec-12 14:21 102 1 gusting 5 8.3
2019-Dec-12 14:11 097 3 gusting 4 8.3
2019-Dec-12 14:01 099 1 gusting 5 8.3
2019-Dec-12 13:51 120 0 gusting 5 7.8
2019-Dec-12 13:41 083 2 gusting 5 7.8
2019-Dec-12 13:31 085 1 gusting 5 7.8
2019-Dec-12 13:21 106 2 gusting 4 7.8
2019-Dec-12 13:11 099 7.8
2019-Dec-12 13:01 083 1 gusting 3 7.8
2019-Dec-12 12:51 106 0 gusting 5 7.2
2019-Dec-12 12:41 096 0 gusting 1 7.2
2019-Dec-12 12:31 093 0 gusting 4 7.2
2019-Dec-12 12:21 097 1 gusting 4 7.2
2019-Dec-12 12:11 093 0 gusting 2 7.2
2019-Dec-12 12:01 099 0 gusting 3 6.7
2019-Dec-12 11:51 093 1 gusting 1 6.7
2019-Dec-12 11:41 102 0 gusting 1 6.7
2019-Dec-12 11:31 127 0 gusting 1 7.2
2019-Dec-12 11:21 144 1 gusting 5 7.8
2019-Dec-12 11:11 131 7.2
2019-Dec-12 11:01 127 1 gusting 3 7.8
2019-Dec-12 10:51 097 1 gusting 3 7.8
2019-Dec-12 10:41 092 1 gusting 8 7.8
2019-Dec-12 10:31 114 1 gusting 4 8.3
2019-Dec-12 10:21 087 1 gusting 4 8.3
2019-Dec-12 10:11 083 1 gusting 4 8.3
2019-Dec-12 10:01 109 2 gusting 6 8.3
2019-Dec-12 09:51 068 1 gusting 5 8.3
2019-Dec-12 09:41 123 1 gusting 4 8.3
2019-Dec-12 09:31 110 2 gusting 4 8.3
2019-Dec-12 09:21 113 1 gusting 7 8.3
2019-Dec-12 09:11 100 1 gusting 6 8.3
2019-Dec-12 09:01 103 0 gusting 6 8.3
2019-Dec-12 08:51 271 1 gusting 9 8.9
2019-Dec-12 08:41 110 0 gusting 3 9.4
2019-Dec-12 08:31 330 0 gusting 8 9.4
2019-Dec-12 08:21 166 2 gusting 6 9.4
2019-Dec-12 08:11 097 3 gusting 10 9.4
2019-Dec-12 08:01 086 4 gusting 12 8.9
2019-Dec-12 07:51 118 4 gusting 11 8.3
2019-Dec-12 07:41 113 3 gusting 10 7.8
2019-Dec-12 07:31 133 4 gusting 10 7.2
2019-Dec-12 07:21 159 4 gusting 11 7.2
2019-Dec-12 07:01 117 2 gusting 15 7.2
2019-Dec-12 06:51 124 6 gusting 8 7.2
2019-Dec-12 06:41 130 4 gusting 13 7.2
2019-Dec-12 06:31 117 6 gusting 12 7.2
2019-Dec-12 06:21 113 6 gusting 12 7.2
2019-Dec-12 06:11 120 3 gusting 10 7.2
2019-Dec-12 06:01 186 3 gusting 13 7.2
2019-Dec-12 05:51 114 5 gusting 11 6.7
2019-Dec-12 05:41 110 3 gusting 13 6.7
2019-Dec-12 05:31 125 5 gusting 10 6.7
2019-Dec-12 05:21 075 4 gusting 10 6.7
2019-Dec-12 05:11 103 4 gusting 12 6.7
2019-Dec-12 05:01 078 5 gusting 12 6.7
2019-Dec-12 04:51 089 4 gusting 9 6.7
2019-Dec-12 04:41 123 4 gusting 12 6.7
2019-Dec-12 04:31 086 5 gusting 11 6.7
2019-Dec-12 04:21 093 5 gusting 13 6.7
2019-Dec-12 04:11 127 6 gusting 13 6.7
2019-Dec-12 04:01 093 5 gusting 13 6.7
2019-Dec-12 03:51 117 3 gusting 10 6.7
2019-Dec-12 03:41 121 6 gusting 12 6.7
2019-Dec-12 03:31 102 4 gusting 11 6.7
2019-Dec-12 03:21 133 4 gusting 12 7.2
2019-Dec-12 03:11 089 1 gusting 10 7.2
2019-Dec-12 03:01 109 5 gusting 12 7.2
2019-Dec-12 02:51 138 4 gusting 11 7.2
2019-Dec-12 02:41 103 5 gusting 12 7.8
2019-Dec-12 02:31 138 4 gusting 13 7.8
2019-Dec-12 02:21 083 6 gusting 11 8.3
2019-Dec-12 02:11 114 6 gusting 10 8.3
2019-Dec-12 02:01 093 4 gusting 12 8.3
2019-Dec-12 01:51 096 4 gusting 11 8.3
2019-Dec-12 01:41 102 2 gusting 11 8.9
2019-Dec-12 01:31 096 3 gusting 8 8.9
2019-Dec-12 01:21 147 2 gusting 6 9.4
2019-Dec-12 01:11 128 2 gusting 13 9.4
2019-Dec-12 01:01 145 4 gusting 11 9.4
2019-Dec-12 00:51 199 4 gusting 13 10.0
2019-Dec-12 00:41 151 2 gusting 8 10.0
2019-Dec-12 00:31 124 3 gusting 13 10.0
2019-Dec-12 00:21 130 3 gusting 10 10.0
2019-Dec-12 00:11 114 6 gusting 10 10.0
2019-Dec-12 00:01 151 5 gusting 14 10.0
2019-Dec-11 23:51 103 5 gusting 12 10.0
2019-Dec-11 23:41 224 5 gusting 11 10.0
2019-Dec-11 23:31 096 4 gusting 11 9.4
2019-Dec-11 23:21 124 6 gusting 15 9.4
2019-Dec-11 23:11 120 5 gusting 13 9.4
2019-Dec-11 23:01 103 3 gusting 12 9.4
2019-Dec-11 22:51 086 5 gusting 13 8.9
2019-Dec-11 22:41 103 5 gusting 13 8.9
2019-Dec-11 22:31 114 5 gusting 11 8.3
2019-Dec-11 22:21 128 4 gusting 14 8.3
2019-Dec-11 22:11 086 4 gusting 9 8.3
2019-Dec-11 22:01 125 3 gusting 7 8.3
2019-Dec-11 21:51 100 2 gusting 13 8.3
2019-Dec-11 21:41 102 2 gusting 8 8.3
2019-Dec-11 21:31 155 3 gusting 8 8.3
2019-Dec-11 21:21 159 2 gusting 8 8.3
2019-Dec-11 21:11 094 2 gusting 5 8.3
2019-Dec-11 21:01 134 2 gusting 6 8.3
2019-Dec-11 20:51 110 2 gusting 9 8.3
2019-Dec-11 20:41 102 3 gusting 11 8.3
2019-Dec-11 20:31 125 5 gusting 10 7.8
2019-Dec-11 20:21 142 1 gusting 8 7.8
2019-Dec-11 20:11 103 4 gusting 11 7.8
2019-Dec-11 20:01 124 2 gusting 8 7.8
2019-Dec-11 19:51 082 5 gusting 10 7.8
2019-Dec-11 19:41 102 3 gusting 7 8.3
2019-Dec-11 19:31 087 1 gusting 11 7.8
2019-Dec-11 19:21 111 3 gusting 9 7.8
2019-Dec-11 19:11 082 2 gusting 10 7.8
2019-Dec-11 19:01 128 3 gusting 9 7.2
2019-Dec-11 18:51 140 1 gusting 9 7.2
2019-Dec-11 18:41 110 2 gusting 8 7.2
2019-Dec-11 18:31 227 0 gusting 5 7.2
2019-Dec-11 18:21 155 2 gusting 6 6.7
2019-Dec-11 18:11 066 6.7
2019-Dec-11 18:01 340 0 gusting 3 6.7
2019-Dec-11 17:51 079 6.7
2019-Dec-11 17:41 121 0 gusting 3 6.1
2019-Dec-11 17:31 090 1 gusting 8 6.1
2019-Dec-11 17:21 121 5.6
2019-Dec-11 17:11 262 0 gusting 3 5.6
2019-Dec-11 17:01 030 2 gusting 8 5.6
2019-Dec-11 16:51 110 1 gusting 4 5.6
2019-Dec-11 16:41 125 2 gusting 4 5.6
2019-Dec-11 16:31 109 5.0
2019-Dec-11 16:21 082 0 gusting 4 5.0
2019-Dec-11 16:11 085 5.0
2019-Dec-11 15:51 090 0 gusting 2 5.0
2019-Dec-11 15:41 134 5.6
2019-Dec-11 15:31 090 5.0
2019-Dec-11 15:21 104 5.0
2019-Dec-11 15:11 092 5.0
2019-Dec-11 15:01 100 5.0
2019-Dec-11 14:51 078 0 gusting 1 5.0
2019-Dec-11 14:41 111 0 gusting 1 5.0
2019-Dec-11 14:31 110 0 gusting 1 5.0
2019-Dec-11 14:21 104 5.0
2019-Dec-11 14:11 104 0 gusting 3 5.0
2019-Dec-11 14:01 094 0 gusting 1 5.0
2019-Dec-11 13:51 100 5.0
2019-Dec-11 13:41 097 5.0
2019-Dec-11 13:31 114 5.0
2019-Dec-11 13:21 127 0 gusting 1 4.4
2019-Dec-11 13:10 102 0 gusting 1 4.4
2019-Dec-11 13:00 107 0 gusting 2 4.4
2019-Dec-11 12:51 110 0 gusting 2 4.4
2019-Dec-11 12:40 099 1 gusting 2 3.9
2019-Dec-11 12:30 097 0 gusting 1 3.9
2019-Dec-11 12:20 131 3.9
2019-Dec-11 12:10 131 4.4
2019-Dec-11 12:00 131 4.4
2019-Dec-11 11:50 131 4.4
2019-Dec-11 11:40 135 5.0
2019-Dec-11 11:30 093 5.0
2019-Dec-11 11:20 109 0 gusting 1 5.0
2019-Dec-11 11:10 106 4.4
2019-Dec-11 11:00 102 0 gusting 0 4.4
2019-Dec-11 10:50 102 0 gusting 2 4.4
2019-Dec-11 10:40 099 0 gusting 1 4.4
2019-Dec-11 10:30 104 3.9
2019-Dec-11 10:20 116 3.9
2019-Dec-11 10:10 094 3.9
2019-Dec-11 10:00 094 3.9
2019-Dec-11 09:50 094 4.4
2019-Dec-11 09:40 121 5.0
2019-Dec-11 09:30 123 5.0
2019-Dec-11 09:20 110 5.6
2019-Dec-11 09:10 097 5.6
2019-Dec-11 09:00 106 0 gusting 2 5.6
2019-Dec-11 08:50 097 5.6
2019-Dec-11 08:40 100 0 gusting 3 5.6
2019-Dec-11 08:30 102 0 gusting 1 5.6
2019-Dec-11 08:20 037 0 gusting 0 5.6
2019-Dec-11 08:10 092 0 gusting 1 5.6
2019-Dec-11 08:00 109 5.6
2019-Dec-11 07:50 099 0 gusting 1 5.6
2019-Dec-11 07:40 089 0 gusting 2 5.6
2019-Dec-11 07:30 096 0 gusting 1 5.6
2019-Dec-11 07:20 111 5.6
2019-Dec-11 07:10 092 0 gusting 2 5.6
2019-Dec-11 07:00 117 5.6
2019-Dec-11 06:50 124 5.6
2019-Dec-11 06:40 121 5.6
2019-Dec-11 06:30 114 0 gusting 1 5.6
2019-Dec-11 06:20 125 5.6
2019-Dec-11 06:10 124 5.6
2019-Dec-11 06:00 134 5.6
2019-Dec-11 05:50 123 5.6
2019-Dec-11 05:40 155 5.6
2019-Dec-11 05:30 140 5.6
2019-Dec-11 05:20 140 5.6
2019-Dec-11 05:10 220 5.6
2019-Dec-11 05:00 251 5.6
2019-Dec-11 04:50 251 5.6
2019-Dec-11 04:40 134 5.6
2019-Dec-11 04:30 240 0 gusting 1 5.6
2019-Dec-11 04:20 109 5.6
2019-Dec-11 04:10 120 5.6
2019-Dec-11 04:00 118 5.6
2019-Dec-11 03:50 199 5.6
2019-Dec-11 03:40 104 5.6
2019-Dec-11 03:30 087 5.6
2019-Dec-11 03:20 066 5.6
2019-Dec-11 03:10 092 5.6
2019-Dec-11 03:00 092 5.6
2019-Dec-11 02:50 047 5.6
2019-Dec-11 02:40 113 0 gusting 2 5.6
2019-Dec-11 02:30 110 5.6
2019-Dec-11 02:20 125 5.6
2019-Dec-11 02:10 044 0 gusting 0 5.6
2019-Dec-11 02:00 096 5.6
2019-Dec-11 01:50 085 5.6
2019-Dec-11 01:40 113 5.6
2019-Dec-11 01:30 102 5.6
2019-Dec-11 01:20 104 5.6
2019-Dec-11 01:10 141 5.6
2019-Dec-11 01:00 118 5.6
2019-Dec-11 00:50 102 5.6
2019-Dec-11 00:40 113 5.6
2019-Dec-11 00:30 127 5.6
2019-Dec-11 00:20 110 5.6
2019-Dec-11 00:10 076 5.0
2019-Dec-11 00:00 127 5.0